Regional Weather Roundup
Issued by NWS Northern Indiana

Home | Current Version | Previous Version | Text Only | Print | Product List | Glossary On
Versions: 1 2 3 4 5 6 7 8 9 10 11 12 13 14 15 16 17 18 19 20 21 22 23 24 25 26 27 28 29 30 31 32 33 34 35 36 37 38 39 40 41 42 43 44 45 46 47 48 49 50
000
ASUS43 KIWX 050910
RWRIWX

KIWX WEATHER ROUNDUP
NATIONAL WEATHER SERVICE NORTHERN INDIANA
500 AM EDT SUN JUL 05 2015

NOTE: "FAIR" INDICATES FEW OR NO CLOUDS BELOW 12,000 FEET WITH NO
SIGNIFICANT WEATHER AND/OR OBSTRUCTIONS TO VISIBILITY.

* THESE STATIONS ARE NOT UNDER NWS QUALITY CONTROL. THEY ALSO MAY NOT
  REPORT WEATHER SUCH AS PRECIPITATION OR FOG.

INZ001>027-051000-
NORTHERN INDIANA

CITY           SKY/WX    TMP DP  RH WIND       PRES   REMARKS
GARY*          FOG      N/A N/A N/A CALM      30.07S VSB 3/4
VALPARAISO     CLEAR     60  58  92 CALM      30.08S FOG
MICHIGAN CITY*   N/A     59  59 100 CALM      30.08R FOG
LAPORTE*       CLEAR    N/A N/A N/A CALM      30.09R FOG
KNOX*            N/A     57  57 100 CALM      30.07S
SOUTH BEND     CLEAR     60  57  89 CALM      30.09S FOG
GOSHEN         CLEAR     58  56  93 CALM      30.09R FOG
MONTICELLO*    FOG       60  60 100 CALM      30.06S VSB 1
LOGANSPORT*    FOG       59  57  94 CALM      30.08S VSB 3/4
ROCHESTER*     CLEAR     61  61 100 CALM      30.08S FOG
WARSAW*          N/A     57  57 100 CALM      30.08S FOG
ANGOLA*          N/A     57  57 100 CALM      30.09S VSB 1
FORT WAYNE     CLEAR     60  59  96 CALM      30.09R
HUNTINGTON*    CLEAR     59  58  97 CALM      30.08R FOG
PERU/GRISSOM   CLEAR     59  59 100 NE2       30.06S
MARION*          N/A     58  57  99 CALM      30.08R FOG

$$
INZ028>050-051000-
CENTRAL INDIANA

CITY           SKY/WX    TMP DP  RH WIND       PRES   REMARKS
LAFAYETTE      CLEAR     60  59  96 CALM      30.06R FOG
KOKOMO*        CLEAR     61  55  82 CALM      30.07R
MUNCIE*        PTCLDY    62  59  90 CALM      30.07S FOG
INDIANAPOLIS   MOCLDY    66  58  75 N3        30.04S HAZE

$$
MIZ043>046-050>051-056>058-064>065-071>073-077>080-051000-
SOUTHWEST LOWER MICHIGAN

CITY           SKY/WX    TMP DP  RH WIND       PRES   REMARKS
BATTLE CREEK   CLEAR     60  57  89 CALM      30.10R FOG
BENTON HARBOR  CLEAR     54  52  93 CALM      30.07S FOG
COLDWATER*     CLEAR     56  56  99 SE3       30.09S FOG
HILLSDALE*     CLEAR     57  57 100 CALM      30.10S FOG
HOLLAND        CLEAR     57  56  96 E3        30.08S FOG
GRAND RAPIDS   CLEAR     59  56  89 CALM      30.09R FOG
KALAMAZOO      CLEAR     59  56  89 CALM      30.09S FOG
STURGIS*       CLEAR     59  57  94 CALM      30.08F FOG
THREE RIVERS*    N/A     59  57  93 CALM      30.09S FOG

$$
OHZ001>008-015>018-024>025-051000-
NORTHWEST OHIO

CITY           SKY/WX    TMP DP  RH WIND       PRES   REMARKS
DEFIANCE       CLEAR     61  58  90 CALM      30.08R FOG
FINDLAY        PTCLDY    62  58  86 CALM      30.07R
TOLEDO EXPRESS CLEAR     55  54  96 CALM      30.08R
TOLEDO METCALF CLEAR     60  53  77 CALM      30.09R
LIMA           PTCLDY    59  57  93 CALM      30.08R

$$
AND FOR LAKE MICHIGAN COASTAL AND OPEN LAKE BUOY OBSERVATIONS

STATION/POSITION TEMP    WIND        PRES    VSBY  WAVE
                 AIR SEA DIR/SP/G                  HT/PER
                 (F)     (DEG/KT/KT) (MB)    (MI)  (FT/S)
CALUMET HARBOR    67     180/  3/  4   N/A
MICHIGAN CITY     69     150/  8/ 11   N/A
BURNS HARBOR      67     190/  6/  8 1018.6R
SAINT JOSEPH      64     110/  2/  5   N/A
4 MI NW BRIDGMAN  65 64                N/A           0
MICHIGAN CITY     65 64  190/  2/  4   N/A           0

$$
&&



USA.gov is the U.S. government's official web portal to all federal, state and local government web resources and services.